Vorticity
-1 9 8 5 7 7 4 4 4 3 3 4 5 6 6 7 7 6 6 5 5 6 7 5 5 6 6 6 6 5 5 4 5 5 6 5 5 5 5 8 7 9 7
-5 20 7 6 7 4 4 4 3 3 3 5 5 7 7 7 7 6 5 5 7 7 5 6 6 7 7 6 6 5 5 5 5 4 3 4 4 5 5 8 7 8 8
3 -2 10 7 3 4 4 4 2 3 4 4 7 7 6 6 5 5 6 7 8 8 7 7 7 7 6 5 5 4 3 3 3 4 5 6 7 6 5 10 7 8 9
12 20 6 -6 7 5 4 2 2 2 4 5 6 6 5 4 4 5 6 5 5 5 5 6 7 6 5 4 2 1 2 4 5 6 6 6 7 7 7 8 7 9 8
35 -13 11 8 5 4 3 1 2 3 3 6 6 5 5 4 3 3 4 5 5 4 5 6 5 5 3 1 1 2 1 3 4 4 4 6 8 8 9 11 10 9 9
-3 13 16 8 4 4 2 2 2 2 3 4 5 6 7 5 5 5 7 5 3 4 3 5 5 4 3 3 3 3 3 4 5 6 6 10 10 8 7 7 9 9 10
5 6 12 8 4 3 2 3 2 2 3 4 4 5 4 5 5 5 7 6 7 8 6 6 7 6 3 3 5 8 11 9 11 11 13 11 11 8 8 7 6 8 9
12 13 13 8 4 4 3 2 2 3 4 4 4 7 4 3 1 5 8 7 -10 -3 8 8 5 5 5 4 2 -5 -7 -9 -3 11 14 11 6 5 6 7 7 8 11
10 13 11 9 6 4 3 3 4 5 5 10 10 10 3 1 8 14 -4 9 8 21 13 6 7 5 5 4 -5 -2 -5 -6 12 18 11 6 6 9 9 8 8 8 7
18 16 11 9 7 6 6 4 4 4 7 7 -2 -1 -1 1 11 5 -6 -2 -3 20 0 18 -2 -9 -7 5 -8 3 17 33 9 10 6 6 8 9 8 8 8 8 7
4 13 11 8 7 5 6 4 9 6 -0 -4 10 3 7 -1 1 18 -13 8 26 24 10 4 19 7 23 32 16 18 5 10 11 8 7 7 9 9 7 7 7 8 9
-3 2 6 10 6 6 6 1 10 12 10 9 36 16 -23 -6 11 26 25 12 2 17 8 13 -2 -0 4 6 8 11 5 11 8 8 8 9 8 6 7 7 8 9 11
5 11 11 10 7 -1 -3 0 -10 4 -13 -27 -1 8 2 -7 16 -11 6 2 6 12 -1 6 9 10 2 9 5 20 13 7 8 8 7 7 6 7 8 8 10 11 10
8 22 -11 -11 5 7 9 12 23 8 20 13 25 -2 -12 28 20 37 23 5 -0 7 10 15 6 4 8 10 7 5 9 9 9 8 7 6 7 8 7 7 10 10 11
36 57 2 20 26 22 18 -7 -4 29 -5 -2 -0 24 30 42 6 9 8 7 0 8 13 5 6 9 15 12 7 9 9 8 8 8 6 7 8 9 6 8 9 11 10
3 -1 10 2 7 26 25 23 28 11 31 51 6 16 29 -7 -7 -5 9 10 9 10 4 6 4 6 3 9 10 11 9 9 9 7 7 7 7 8 8 8 13 13 15
5 4 5 4 2 4 2 1 4 7 -4 6 7 9 3 -1 1 11 9 7 10 3 6 6 8 5 9 14 11 9 9 9 8 7 8 7 9 9 8 12 13 12 12
9 8 7 7 6 7 6 5 6 7 9 10 12 1 3 22 -9 3 -1 9 5 4 5 2 3 5 10 10 10 10 9 8 7 7 8 10 10 7 11 12 13 15 14
9 9 9 9 7 8 8 8 7 7 8 8 8 19 17 3 15 5 6 -4 11 6 8 1 3 3 10 10 10 9 9 8 7 8 10 10 8 10 13 15 14 14 15
6 6 6 6 7 9 9 8 7 6 6 6 6 7 7 -0 16 13 11 1 19 -2 10 2 2 4 9 11 9 9 8 8 10 12 12 10 10 13 16 14 14 13 12
5 4 4 5 6 6 6 6 6 8 10 10 9 8 11 16 3 4 7 4 23 0 3 1 3 5 8 11 9 8 9 10 13 13 12 10 13 18 15 14 13 9 12
8 8 9 10 10 11 10 10 10 9 10 8 7 8 11 11 13 15 7 8 29 7 -25 11 13 5 7 10 8 8 10 13 13 14 11 13 17 15 12 12 3 6 7
12 12 11 10 8 7 9 11 13 13 12 12 13 13 10 10 12 1 21 27 11 13 8 5 9 6 8 9 8 8 12 14 15 14 14 16 14 11 12 10 10 6 15
7 7 10 13 14 15 12 11 10 10 13 15 12 13 15 16 18 24 8 7 3 11 17 7 2 10 10 9 8 10 13 15 15 13 14 14 9 8 4 11 10 12 12
5 5 4 4 12 17 16 16 12 12 13 12 13 14 14 13 24 -9 9 16 12 -2 11 12 11 11 10 7 8 10 14 14 12 14 13 9 8 5 12 12 7 5 7
16 17 14 10 6 9 14 16 14 13 10 11 13 13 12 11 10 10 10 19 11 3 8 11 8 10 9 8 7 10 13 14 12 14 10 10 6 6 13 6 7 12 13
Height
3145 3148 3151 3155 3158 3160 3162 3164 3166 3167 3168 3168 3168 3168 3168 3168 3168 3168 3168 3168 3167 3166 3166 3165 3164 3163 3163 3161 3160 3158 3157 3155 3154 3152 3151 3149 3147 3145 3142 3139 3137 3134 3132
3140 3144 3147 3152 3155 3158 3160 3162 3164 3165 3166 3167 3167 3167 3166 3166 3166 3166 3166 3167 3166 3164 3164 3163 3162 3162 3161 3159 3158 3157 3155 3153 3151 3150 3148 3145 3143 3140 3138 3136 3134 3131 3129
3132 3140 3143 3149 3151 3155 3158 3160 3161 3162 3163 3164 3164 3164 3164 3164 3163 3163 3164 3164 3165 3162 3162 3161 3160 3159 3158 3157 3156 3154 3152 3151 3148 3146 3143 3142 3140 3138 3135 3132 3129 3127 3124
3128 3133 3137 3142 3149 3152 3155 3157 3158 3160 3161 3162 3162 3161 3161 3161 3161 3161 3161 3161 3160 3160 3160 3159 3158 3157 3155 3154 3152 3152 3150 3148 3145 3143 3140 3138 3135 3133 3130 3128 3125 3122 3120
3121 3124 3130 3140 3145 3148 3152 3154 3155 3157 3158 3159 3159 3159 3158 3158 3157 3158 3159 3157 3158 3155 3155 3155 3154 3154 3152 3151 3149 3147 3146 3144 3141 3138 3135 3133 3131 3128 3126 3124 3121 3119 3117
3114 3121 3127 3136 3140 3144 3147 3150 3152 3154 3155 3155 3155 3155 3155 3154 3154 3154 3154 3154 3153 3152 3151 3151 3150 3149 3148 3147 3145 3143 3141 3139 3137 3135 3131 3128 3126 3123 3122 3119 3117 3115 3113
3113 3120 3127 3132 3136 3140 3144 3146 3148 3149 3151 3151 3151 3151 3151 3150 3150 3150 3150 3149 3149 3149 3148 3146 3145 3144 3143 3142 3140 3138 3136 3134 3132 3129 3126 3124 3121 3120 3118 3116 3114 3111 3109
3110 3116 3122 3127 3132 3136 3139 3141 3144 3145 3146 3146 3147 3147 3147 3146 3146 3145 3144 3144 3144 3144 3144 3141 3140 3139 3137 3135 3134 3132 3131 3129 3127 3125 3122 3120 3117 3115 3114 3112 3110 3107 3106
3106 3111 3118 3123 3127 3131 3135 3138 3139 3140 3141 3141 3142 3143 3140 3141 3140 3140 3140 3139 3138 3138 3137 3135 3134 3133 3131 3130 3128 3126 3125 3123 3120 3119 3117 3115 3112 3110 3109 3107 3105 3102 3099
3102 3108 3113 3118 3123 3126 3129 3132 3133 3134 3134 3134 3135 3135 3135 3135 3134 3133 3133 3132 3130 3131 3130 3129 3127 3126 3125 3123 3122 3121 3118 3116 3115 3113 3112 3110 3107 3105 3102 3100 3099 3096 3094
3098 3103 3109 3113 3117 3121 3124 3125 3126 3126 3125 3126 3128 3128 3127 3127 3125 3125 3125 3125 3121 3121 3120 3121 3120 3120 3118 3116 3116 3114 3112 3110 3110 3108 3106 3104 3101 3099 3097 3095 3093 3091 3089
3091 3095 3102 3106 3108 3112 3114 3116 3118 3117 3120 3117 3119 3119 3120 3120 3117 3116 3114 3117 3115 3114 3114 3114 3115 3114 3112 3110 3109 3107 3105 3104 3103 3101 3099 3098 3096 3093 3092 3089 3087 3084 3082
3085 3089 3093 3097 3102 3105 3107 3109 3110 3111 3113 3112 3111 3111 3112 3110 3108 3108 3107 3108 3108 3109 3108 3107 3108 3107 3105 3103 3101 3099 3097 3096 3095 3094 3092 3091 3090 3088 3085 3082 3081 3079 3076
3083 3086 3090 3093 3095 3099 3101 3102 3103 3105 3104 3104 3104 3102 3101 3099 3099 3100 3099 3100 3102 3102 3102 3102 3101 3099 3098 3096 3094 3093 3092 3090 3089 3089 3086 3084 3083 3081 3079 3077 3074 3071 3068
3079 3082 3086 3090 3092 3090 3091 3092 3093 3095 3093 3092 3095 3093 3092 3091 3089 3093 3094 3095 3096 3096 3095 3095 3094 3093 3090 3089 3088 3085 3085 3083 3082 3083 3082 3079 3077 3074 3071 3070 3067 3065 3061
3077 3080 3083 3084 3085 3082 3082 3084 3087 3086 3082 3083 3087 3085 3085 3085 3085 3085 3087 3089 3088 3088 3088 3087 3087 3086 3084 3082 3081 3079 3079 3077 3076 3076 3075 3072 3069 3066 3065 3065 3062 3059 3057
3075 3077 3078 3080 3079 3079 3079 3078 3079 3080 3079 3080 3080 3080 3080 3080 3079 3078 3079 3080 3080 3081 3080 3080 3080 3079 3077 3075 3075 3073 3072 3071 3070 3068 3066 3065 3063 3060 3059 3057 3054 3052 3050
3074 3075 3076 3075 3074 3074 3074 3073 3072 3072 3072 3071 3072 3072 3071 3069 3068 3069 3071 3071 3071 3073 3073 3073 3071 3071 3070 3068 3067 3066 3065 3063 3063 3061 3060 3057 3054 3053 3051 3050 3048 3047 3044
3069 3070 3069 3069 3069 3068 3067 3066 3066 3065 3064 3063 3062 3062 3062 3060 3061 3061 3059 3063 3065 3063 3065 3063 3064 3063 3063 3062 3061 3059 3059 3056 3055 3053 3051 3051 3049 3046 3045 3044 3043 3043 3041
3064 3063 3062 3062 3061 3059 3058 3056 3056 3054 3054 3052 3053 3054 3053 3053 3052 3054 3048 3053 3049 3054 3054 3056 3056 3055 3055 3054 3055 3054 3052 3051 3049 3048 3047 3043 3042 3041 3040 3039 3039 3039 3038
3056 3054 3054 3053 3051 3048 3048 3046 3046 3045 3043 3041 3040 3041 3042 3043 3042 3041 3036 3043 3039 3039 3042 3046 3046 3047 3048 3046 3045 3043 3044 3044 3042 3040 3041 3039 3036 3034 3034 3036 3036 3035 3034
3047 3045 3044 3044 3042 3039 3039 3037 3036 3034 3034 3032 3031 3030 3030 3029 3030 3030 3031 3032 3032 3029 3031 3035 3036 3037 3037 3039 3038 3037 3035 3034 3034 3032 3033 3033 3032 3029 3031 3032 3033 3032 3031
3039 3037 3036 3032 3029 3029 3026 3024 3023 3021 3020 3018 3018 3018 3018 3017 3019 3020 3019 3021 3022 3022 3025 3026 3028 3028 3027 3030 3029 3029 3028 3025 3025 3025 3023 3025 3027 3027 3027 3029 3029 3028 3026
3026 3026 3022 3019 3015 3016 3016 3013 3011 3007 3006 3005 3004 3005 3004 3005 3005 3007 3010 3011 3012 3014 3015 3017 3020 3020 3020 3019 3021 3020 3020 3018 3017 3019 3017 3020 3020 3022 3023 3025 3024 3025 3024
3017 3013 3010 3007 3004 3003 3003 3002 2997 2995 2994 2993 2991 2990 2991 2991 2993 2994 2994 2998 3001 3002 3006 3006 3007 3010 3011 3012 3013 3013 3010 3011 3012 3013 3015 3014 3017 3018 3018 3020 3020 3021 3022
3010 3005 3001 2998 2994 2990 2989 2988 2981 2981 2981 2979 2980 2978 2980 2979 2980 2982 2983 2988 2989 2992 2995 2996 2997 2999 3003 3004 3003 3005 3002 3003 3005 3005 3010 3010 3012 3014 3013 3015 3016 3017 3018